Wind_Speed
50 53 57 63 65 63 65 66 63 60 59 58 57 55 54 53 53 51 49 48 46 45 44 42 40 39 40 38 37 37 37 35 32 30 29 29 28 27 26 25 24 23 22 21 19 19 18 16 15 15 16 16 15 15 14 14 14 13 13 13 13 14 13 13 13 13 13 12 12 12 12 12 12 13 14 15 16 16 16 16 16 16 16 17 18 19
51 54 56 59 62 64 67 67 63 61 60 59 58 56 54 54 53 51 49 47 46 45 43 42 42 43 43 40 39 39 37 35 33 31 31 30 29 28 27 26 25 23 23 22 20 19 18 16 15 16 16 16 16 15 15 15 14 14 14 15 15 15 15 15 15 15 14 14 13 13 13 13 14 14 15 16 16 17 17 18 18 18 18 19 20 21
50 52 54 57 61 65 69 69 64 61 61 60 59 57 56 56 55 52 50 48 47 45 44 45 45 44 43 41 39 39 37 35 34 33 32 31 30 28 27 27 25 24 23 23 21 20 19 18 17 17 17 17 17 17 16 16 16 15 16 16 16 15 16 16 16 16 16 16 16 15 15 15 15 16 17 17 18 18 19 20 20 21 21 22 23 23
47 49 52 58 62 67 71 69 64 61 61 61 60 58 57 57 56 53 51 49 48 47 46 47 46 45 45 44 41 38 37 36 35 34 33 32 30 29 29 27 26 25 24 24 23 22 20 19 18 18 18 18 17 17 17 17 17 17 17 17 17 17 16 17 17 17 17 17 18 18 18 18 18 18 19 20 20 21 21 22 23 23 24 25 26 26
46 47 52 61 65 69 73 70 65 61 61 61 60 58 58 57 56 53 51 49 48 47 48 48 48 48 47 45 41 38 38 38 37 35 34 32 31 30 29 27 26 25 25 24 23 22 21 20 19 19 19 19 19 19 19 19 18 18 19 19 19 18 18 18 18 19 19 19 20 20 20 20 20 21 21 22 22 23 24 25 26 26 27 28 28 29
47 49 55 64 68 71 74 71 65 62 61 61 60 59 58 56 54 52 50 50 49 49 49 49 51 50 47 45 41 39 41 40 38 36 34 33 32 31 29 28 27 26 26 25 24 23 22 21 20 20 20 20 20 21 21 20 20 20 20 21 20 20 20 20 20 21 21 21 22 22 22 22 22 23 24 24 25 25 26 27 28 28 29 30 31 32
47 51 57 67 70 72 75 71 66 62 60 61 61 60 57 54 53 52 51 50 50 51 50 50 52 50 46 45 43 42 43 41 39 38 36 35 34 31 30 29 28 27 26 26 25 24 23 22 21 20 20 20 21 22 22 22 22 22 22 22 22 21 21 22 23 23 23 23 24 24 24 24 24 26 27 27 27 27 28 29 30 31 32 32 33 34
45 49 58 69 72 74 76 72 67 62 59 60 61 59 56 53 52 52 50 50 51 51 51 51 52 51 48 46 45 44 43 42 41 39 37 36 34 32 31 30 29 28 28 27 26 24 23 23 22 21 21 21 22 22 22 23 23 23 23 23 23 23 23 24 25 25 25 25 26 25 25 25 26 28 29 29 29 30 31 31 32 33 34 34 36 37
42 47 58 69 73 75 76 73 68 62 59 60 59 57 55 52 51 50 49 50 51 51 52 53 53 53 50 47 46 46 44 43 42 39 37 37 35 33 32 31 30 30 29 27 26 25 24 23 23 22 22 22 23 23 23 23 23 23 24 24 25 25 26 26 27 27 27 27 27 27 27 27 28 30 31 31 31 32 33 34 34 35 36 37 38 39
41 47 59 70 74 75 76 73 68 63 60 59 57 56 55 52 51 50 49 50 52 54 55 54 53 54 51 48 47 47 46 44 41 39 38 37 36 35 33 32 31 30 29 28 27 25 24 24 23 23 23 23 23 23 23 23 24 24 25 26 26 27 28 28 29 29 28 28 28 28 28 29 30 31 32 32 33 34 35 36 37 38 38 39 40 41
43 49 60 71 74 75 76 73 68 62 59 58 55 55 55 53 51 51 51 52 55 57 56 54 54 55 54 50 48 48 46 43 41 41 40 38 35 34 34 33 32 31 30 29 27 26 25 24 24 24 24 24 24 24 24 24 24 25 26 27 28 29 30 30 30 30 30 30 30 30 31 31 32 32 33 34 35 36 37 38 39 40 41 42 43 43
43 50 60 70 74 75 76 73 66 61 58 56 54 54 55 53 52 52 53 54 57 60 57 54 54 55 55 52 49 48 46 43 42 42 41 38 36 35 34 34 33 33 31 29 28 27 26 25 25 25 25 24 24 24 25 25 25 26 27 28 29 30 31 31 31 31 31 31 32 32 33 33 34 34 35 36 37 38 39 40 41 42 43 44 44 45
43 49 58 69 74 75 75 71 65 61 58 57 55 55 56 55 54 54 56 57 60 60 57 54 54 56 57 53 49 48 45 44 43 42 41 39 38 37 36 35 35 33 31 30 29 28 27 27 26 26 25 25 25 25 25 26 26 26 27 28 29 30 31 32 32 33 33 33 33 34 34 35 36 36 37 38 39 40 41 42 43 44 44 45 46 47
43 50 58 68 74 76 74 69 66 64 61 60 58 57 58 58 56 56 58 59 60 60 57 55 55 57 58 54 50 48 45 44 43 41 41 40 39 39 38 37 36 34 32 31 30 29 29 28 27 27 26 26 26 25 26 26 27 27 27 28 29 31 32 33 33 34 34 35 35 36 36 37 37 38 39 39 40 41 42 43 44 45 46 46 47 47
40 47 55 65 73 76 74 70 66 64 61 59 58 57 58 58 56 56 57 58 58 57 56 56 56 58 58 54 50 48 46 44 43 42 41 41 40 40 39 38 36 35 33 32 31 31 30 29 29 28 28 27 27 27 27 27 27 28 28 29 30 31 32 33 33 34 35 36 37 38 38 39 39 40 40 41 42 43 44 44 45 46 46 47 47 48
39 44 52 63 72 75 73 69 65 62 59 58 57 57 58 58 55 54 54 56 56 55 56 57 58 58 57 53 49 47 47 45 43 43 43 42 41 40 40 39 37 36 35 34 33 32 31 31 30 30 30 29 29 28 28 28 28 29 29 29 30 31 32 32 33 34 35 36 38 39 40 40 41 42 42 43 44 45 45 45 46 46 47 47 48 48
40 45 52 62 71 73 71 66 63 62 61 60 60 59 59 59 57 55 55 57 57 57 58 59 59 58 56 54 51 48 47 47 45 43 43 43 42 41 40 39 38 37 36 35 34 33 33 32 32 32 32 31 31 30 30 30 30 30 30 30 31 31 32 32 33 34 35 37 38 39 40 41 42 43 44 45 46 46 47 47 47 47 48 48 49 49
40 45 52 62 69 70 69 65 63 62 61 61 61 59 58 57 57 56 55 56 58 59 60 60 59 58 57 56 53 50 48 46 45 44 43 43 42 41 41 40 39 39 38 37 36 35 34 33 33 33 33 33 33 32 32 32 31 31 31 31 31 32 32 33 34 35 36 38 39 40 41 42 43 44 45 46 47 47 48 48 48 49 49 50 50 51
40 46 54 61 66 67 65 63 62 61 60 60 59 57 55 55 56 56 55 57 58 59 60 59 58 58 58 56 52 49 46 45 45 44 43 43 43 42 42 42 42 41 40 39 38 37 36 35 34 34 34 34 34 34 33 33 33 32 32 32 32 33 33 34 35 36 38 39 41 42 43 44 45 46 46 47 47 48 48 49 49 49 50 50 50 50
42 47 53 58 62 64 63 62 61 60 59 59 58 55 53 53 54 54 53 54 55 56 58 58 57 56 55 53 50 47 45 44 44 44 43 44 44 44 44 44 43 43 42 42 40 39 38 37 36 36 36 36 35 35 35 34 33 33 33 33 33 34 34 35 37 38 40 41 42 43 44 45 46 46 47 47 47 48 48 48 49 49 49 49 49 49
44 47 50 55 60 61 62 64 63 59 56 57 56 55 54 54 53 52 52 52 52 53 55 56 56 55 52 50 49 46 45 44 43 43 43 44 45 45 44 44 44 44 43 43 42 41 40 39 38 38 37 37 37 37 36 35 34 34 34 34 34 35 36 37 39 40 41 42 43 44 45 46 46 47 47 47 47 48 48 48 48 48 47 48 48 49
45 47 49 52 56 60 62 62 60 56 54 53 53 53 52 51 50 50 50 51 51 51 52 53 54 54 51 49 47 45 44 43 43 42 43 44 44 45 45 44 44 43 42 42 42 42 41 41 40 40 39 39 38 37 37 36 35 35 36 36 37 38 39 40 41 42 42 43 44 45 46 46 46 46 46 46 47 47 47 47 47 47 48 49 49 50
45 46 47 49 52 56 59 58 56 54 54 53 52 51 49 48 48 48 49 49 48 48 49 50 52 52 51 48 47 45 44 42 41 42 42 43 43 43 43 44 43 42 42 41 41 41 41 41 41 41 40 39 38 38 37 37 37 38 38 39 40 41 42 42 43 43 44 45 45 46 46 46 46 46 46 46 46 46 46 46 47 48 49 50 51 52
43 45 46 46 48 52 54 55 55 54 54 54 53 52 51 50 48 48 48 48 47 47 47 48 51 52 50 49 47 44 42 41 40 40 40 41 40 40 41 42 42 42 42 42 41 41 41 41 41 40 40 39 38 38 38 39 39 40 40 41 42 42 43 44 44 45 46 46 47 48 48 47 47 46 46 46 46 46 47 47 48 50 51 52 53 55
42 45 46 45 47 51 53 56 57 58 59 58 56 55 53 51 48 48 48 48 48 48 47 48 52 52 47 46 46 43 41 40 39 39 39 39 39 39 40 40 41 42 42 42 42 41 40 40 40 39 39 39 39 39 40 40 41 41 42 43 43 44 44 45 46 47 47 48 49 49 48 48 48 48 48 47 47 48 48 49 50 52 53 54 55 56
40 42 44 45 48 52 54 57 60 62 63 62 60 57 54 51 48 47 48 48 49 50 48 49 53 49 43 42 43 41 41 40 39 38 37 37 38 39 40 41 41 42 42 42 42 41 40 40 39 39 39 40 40 41 41 42 43 43 44 44 44 45 45 46 47 48 49 49 49 49 49 49 49 48 48 48 48 49 50 51 52 53 54 55 57 58
39 41 43 44 46 48 48 49 49 50 53 55 55 53 52 50 47 46 47 49 49 48 49 49 50 47 42 42 42 41 41 41 39 39 38 37 39 41 42 42 42 42 42 41 41 41 40 40 40 40 41 41 42 43 44 44 45 45 45 45 45 46 47 48 49 50 50 50 50 50 50 50 49 49 49 50 51 51 52 53 54 55 56 57 58 60
43 44 44 44 44 44 42 40 39 39 42 44 46 46 47 46 46 46 47 47 46 47 50 49 48 49 46 43 43 41 40 40 40 41 41 41 40 41 41 41 41 41 41 41 41 42 42 42 42 43 44 44 45 45 46 46 45 45 45 46 47 48 49 50 51 51 51 51 51 51 52 52 51 51 52 53 54 54 55 55 56 57 59 60 61 63
46 46 45 44 45 44 42 41 40 40 40 41 42 43 43 44 46 47 47 46 46 48 51 49 48 51 49 43 42 43 42 42 42 42 43 42 41 40 39 40 40 41 41 42 42 43 44 44 45 45 46 46 46 46 46 46 46 46 47 48 49 51 51 51 52 52 52 52 53 53 54 54 54 54 55 56 56 56 57 58 59 61 62 63 64 65
47 47 46 45 44 44 44 44 44 43 44 44 45 45 45 45 47 48 48 48 48 51 52 50 51 54 51 45 43 44 44 43 43 43 42 41 41 41 41 42 42 43 43 44 45 45 46 46 47 47 47 47 47 47 47 48 49 49 50 51 52 52 52 52 52 52 53 53 54 55 56 57 57 57 57 58 58 59 60 61 62 63 64 65 66 67
45 46 47 46 45 46 46 46 46 46 46 47 47 47 48 48 49 50 51 51 52 54 53 52 54 54 51 46 45 45 46 46 46 45 44 43 43 44 44 45 45 45 45 45 45 46 46 47 47 48 48 48 49 50 51 51 52 52 53 53 53 53 53 53 54 54 55 56 57 58 59 59 59 59 59 60 60 61 62 63 64 66 66 67 68 69
45 46 46 45 46 47 47 47 48 48 48 50 51 50 50 51 51 51 51 51 52 52 51 52 54 52 47 45 46 48 49 49 48 46 46 46 46 46 46 46 46 46 46 46 46 47 48 48 49 49 50 50 51 52 52 53 53 53 54 54 54 54 55 55 56 56 57 58 59 59 60 61 61 61 61 62 63 64 65 65 66 67 68 69 70 71
47 47 45 46 46 46 47 48 48 48 51 53 52 50 51 51 52 52 52 52 51 51 51 51 51 48 45 45 47 48 50 50 48 47 48 48 49 49 48 48 49 49 49 49 50 50 50 50 51 50 51 51 52 52 53 53 54 54 55 55 56 56 57 57 58 58 59 59 60 60 61 62 63 64 64 64 65 66 67 67 68 68 69 70 71 71
48 47 48 47 47 47 48 48 48 51 53 50 47 48 50 52 53 53 53 52 52 52 52 51 49 48 49 49 49 50 51 51 50 51 51 51 52 52 51 51 51 51 51 51 51 51 51 51 51 51 51 52 53 53 54 55 56 56 56 56 57 57 58 58 59 59 60 60 61 62 63 64 65 66 67 67 68 68 69 69 69 70 71 72 72 72
49 50 50 49 49 51 50 50 53 53 48 43 43 46 49 51 52 52 52 52 53 53 53 53 51 50 51 51 50 51 52 53 54 54 54 54 54 53 53 52 51 51 51 51 52 52 52 52 52 53 53 54 55 55 56 56 56 56 56 57 58 59 59 60 60 61 62 62 63 64 65 66 67 68 69 70 70 70 70 70 70 71 72 72 72 72
48 50 51 50 51 52 52 55 56 50 45 44 44 44 47 49 49 50 52 52 53 54 55 53 51 50 51 51 51 52 53 54 56 55 54 54 54 54 54 53 52 52 51 51 52 52 53 54 54 54 54 55 55 56 56 57 57 57 58 59 60 61 61 62 62 63 64 64 65 66 67 68 69 70 70 71 71 71 70 71 71 72 72 72 71 70
44 45 47 49 51 52 53 54 53 50 49 48 45 43 45 47 48 51 53 52 52 53 54 52 50 50 52 52 52 54 55 57 57 55 53 53 54 54 54 54 54 54 53 53 53 54 54 55 55 55 56 56 57 58 59 59 60 60 61 61 62 62 63 64 64 65 66 67 68 68 69 70 70 70 70 70 70 70 70 71 71 71 71 70 68 67
42 42 42 45 47 48 50 50 51 53 51 45 44 44 45 47 49 52 56 54 50 50 52 51 50 50 52 53 53 55 57 59 58 54 51 53 55 55 55 55 55 56 56 57 56 56 56 57 57 58 59 59 60 61 61 62 62 63 63 63 64 65 65 66 67 67 68 69 69 69 69 69 69 69 69 69 69 69 70 70 70 69 68 67 67 66
42 42 42 43 44 44 46 47 50 53 49 43 45 46 46 48 49 52 57 53 46 48 51 51 51 51 53 54 54 55 57 59 57 52 51 54 56 56 57 57 57 58 59 60 60 60 61 61 61 62 62 62 62 63 63 63 64 64 65 65 66 66 67 67 68 68 68 69 68 68 68 68 67 67 67 67 67 68 68 68 67 67 66 66 66 67
45 45 45 46 45 45 46 46 48 49 46 44 44 43 44 47 48 53 57 50 46 49 50 49 52 55 54 55 55 55 57 57 56 54 55 57 58 59 60 60 60 62 62 62 63 64 64 64 65 65 65 64 64 65 65 65 65 66 66 66 67 67 67 67 67 67 66 66 66 66 65 65 65 65 66 66 66 66 66 66 66 66 66 66 67 68
47 47 47 47 46 46 47 46 47 46 43 43 42 40 41 43 46 51 51 46 47 50 47 48 55 57 56 57 58 57 58 58 57 58 59 60 61 62 62 62 63 63 63 64 64 64 65 66 66 66 66 65 65 65 65 65 65 65 65 65 65 65 65 64 64 64 63 63 63 63 64 64 64 64 64 64 64 64 64 65 65 66 67 68 69 71
50 50 50 49 48 48 47 47 48 46 43 42 42 42 44 45 46 46 43 41 44 46 44 47 52 53 54 57 58 59 60 60 60 61 61 62 63 62 63 63 62 61 61 61 61 61 62 63 63 63 63 63 63 63 63 63 62 62 62 62 62 62 62 62 62 62 62 62 62 62 62 62 62 62 63 63 63 64 65 65 67 68 69 71 72 74
51 51 52 51 50 49 49 50 50 47 43 42 44 45 47 47 44 41 40 41 43 43 44 47 48 49 51 52 53 56 58 58 60 60 61 62 62 62 62 61 60 59 58 57 57 57 58 58 59 59 60 60 60 60 60 60 60 60 60 60 60 61 61 61 61 61 61 61 61 61 61 61 61 62 63 63 64 65 66 68 69 71 72 74 75 77
52 53 53 53 53 53 54 52 49 45 44 43 43 45 47 47 45 44 45 46 45 46 47 48 49 51 51 50 50 52 53 55 57 57 58 60 60 60 60 60 59 59 58 57 56 56 56 56 57 58 58 58 59 59 59 60 60 60 60 61 61 61 61 61 61 60 60 60 60 60 61 62 62 63 64 65 66 67 69 70 72 74 75 77 79 80
52 51 51 52 53 54 54 51 47 46 46 46 46 47 49 50 50 50 49 49 50 50 50 51 53 54 54 53 53 52 52 54 55 56 58 59 59 59 59 59 59 59 58 58 58 57 57 57 57 58 58 58 59 59 59 60 60 60 61 61 61 61 60 60 59 59 59 59 60 61 62 63 64 65 66 67 69 70 71 73 75 77 78 80 82 83
51 49 49 50 51 52 52 49 48 48 48 49 50 51 52 53 53 53 52 52 53 52 52 53 54 54 55 56 55 54 55 56 56 57 58 58 59 59 59 58 59 58 59 59 59 58 58 58 57 58 58 58 58 58 59 59 59 59 59 59 58 58 58 58 58 58 59 60 61 62 63 64 66 67 68 69 71 72 74 76 78 80 81 82 83 84
53 51 51 51 51 52 51 48 48 49 49 50 52 53 54 54 54 54 54 54 53 52 52 53 53 53 55 55 56 56 56 56 57 57 57 57 58 58 58 58 58 57 58 58 58 58 58 58 57 57 57 57 57 57 57 57 57 57 57 56 56 56 56 57 58 59 60 61 62 64 65 66 67 69 70 72 74 76 77 79 80 81 82 82 83 84
54 53 53 52 52 52 50 48 48 50 51 52 53 55 56 56 56 56 56 55 54 53 52 51 51 52 52 54 55 56 55 55 54 53 53 53 53 53 53 54 53 54 54 55 55 56 56 57 57 57 57 57 56 56 56 56 56 56 55 55 55 55 56 58 59 61 62 63 64 66 67 68 70 71 73 75 76 77 78 79 80 81 82 83 83 84
55 55 54 53 53 53 51 50 51 52 52 54 54 55 56 57 57 57 56 55 55 55 53 51 50 50 50 51 52 52 52 51 50 49 49 49 49 49 49 50 50 51 52 53 54 55 56 57 57 57 57 57 57 56 56 55 55 55 54 55 56 57 59 60 62 63 64 66 67 68 69 70 71 73 74 75 76 77 78 79 79 80 81 82 84 84
56 57 55 54 54 54 52 51 51 52 53 53 54 55 56 56 57 57 57 56 56 55 54 52 51 50 49 49 49 49 49 49 49 49 49 49 50 50 51 51 51 52 52 53 55 55 56 57 58 58 58 57 56 56 55 55 55 55 56 57 59 60 62 63 64 65 66 66 67 68 69 71 72 73 74 76 77 77 78 79 80 81 82 83 84 85
57 57 56 55 55 53 51 50 51 52 53 53 53 55 56 56 56 56 56 56 55 54 53 52 51 50 49 48 48 49 49 50 50 50 51 51 52 53 53 54 54 54 54 54 54 55 56 56 57 57 57 57 56 56 56 56 57 58 59 60 61 62 63 64 64 65 66 67 68 69 71 72 73 74 76 77 78 78 79 79 81 82 83 83 84 85
Wind_Direction
210 209 210 211 211 210 204 198 198 200 201 204 205 205 207 208 208 208 207 207 207 209 210 212 214 216 216 215 218 219 218 217 214 214 216 217 219 220 221 223 224 226 229 230 230 232 235 234 234 235 238 242 243 245 249 251 254 258 262 264 264 266 265 262 264 268 269 269 269 270 270 270 269 267 268 271 275 280 284 287 288 289 290 291 291 292
212 209 209 210 211 209 202 197 198 201 201 204 205 205 207 209 210 210 209 209 209 210 212 213 215 218 218 216 218 221 219 218 217 217 218 220 220 221 222 223 224 226 230 231 230 232 236 236 234 235 238 243 247 249 252 255 258 261 264 265 267 269 271 271 271 272 273 273 272 271 270 270 270 270 272 274 277 280 283 286 287 288 288 288 289 290
213 209 208 210 210 207 201 197 199 202 202 204 205 204 206 209 210 210 209 209 210 210 213 215 216 218 221 219 218 221 221 220 220 219 220 221 220 220 221 222 223 224 228 231 231 231 234 236 236 238 241 243 248 252 254 257 260 262 264 268 272 274 276 279 279 277 276 275 274 273 272 272 272 273 275 277 279 281 284 285 285 286 287 288 289 291
213 209 208 210 210 206 200 198 200 203 203 206 206 205 206 208 209 209 209 209 210 210 213 217 218 218 221 221 217 219 222 221 221 221 221 222 221 221 221 222 223 223 226 230 232 233 233 236 239 242 245 246 249 253 255 258 260 263 266 270 274 276 277 278 278 277 276 275 275 274 274 274 274 275 277 279 281 282 284 284 285 286 288 290 291 292
213 210 210 211 210 205 201 200 201 203 204 206 207 206 208 209 209 209 209 210 211 212 214 217 220 219 220 222 218 217 222 223 222 222 222 222 222 223 224 224 225 225 228 230 233 235 236 237 239 243 248 251 252 253 254 257 260 264 266 268 271 273 275 276 275 275 275 274 274 273 274 274 275 276 277 279 280 282 283 284 286 288 289 290 291 291
212 212 211 210 210 205 201 201 202 204 205 206 207 207 209 210 210 209 209 210 211 212 214 217 221 219 219 223 220 218 221 224 224 224 223 222 223 224 226 227 227 228 230 232 234 236 238 240 241 243 247 251 254 255 257 258 260 262 264 266 268 269 271 273 273 272 272 272 272 272 272 272 274 275 276 277 278 279 281 282 285 286 287 288 289 290
212 213 211 209 209 205 201 201 203 204 205 207 208 208 209 210 211 210 209 210 211 213 215 218 221 220 218 222 222 220 222 223 224 225 224 224 225 226 228 229 230 231 231 233 235 237 239 241 243 245 246 248 251 255 257 259 259 261 263 265 267 267 267 267 268 268 268 268 269 270 271 271 272 273 273 275 276 277 278 280 282 283 284 286 287 288
215 216 213 209 207 205 201 201 203 204 206 208 209 208 209 209 212 212 211 212 213 214 216 219 222 221 218 219 221 222 222 222 223 225 225 227 227 227 229 231 232 234 234 234 235 237 239 241 243 244 246 249 250 252 255 257 260 262 264 266 266 266 265 264 264 264 265 265 267 268 269 270 270 271 272 273 274 276 277 278 280 281 283 284 285 287
219 220 215 209 207 204 201 202 204 204 205 209 210 209 209 209 212 213 212 214 215 216 217 219 222 223 219 218 221 222 223 223 223 224 226 229 230 229 229 231 233 234 236 236 236 237 240 243 245 245 246 249 251 253 255 258 260 262 263 265 265 266 265 263 263 263 264 266 267 268 268 269 269 270 272 273 274 275 277 278 279 281 282 283 285 286
222 221 215 210 207 204 201 202 204 204 205 209 209 209 209 210 211 212 212 213 216 217 218 219 221 224 221 217 220 223 223 224 225 225 227 229 231 232 233 233 233 235 237 237 238 238 239 242 245 247 248 250 252 254 257 259 260 262 263 263 264 265 265 265 265 265 267 268 269 270 270 270 270 271 273 274 275 276 277 279 280 281 282 283 285 286
224 221 215 210 206 203 200 201 204 204 206 209 209 208 210 210 210 212 212 213 217 219 218 219 221 225 224 218 218 223 224 224 225 226 228 228 230 233 236 236 235 236 238 239 240 240 240 241 243 247 249 251 253 255 257 259 261 262 263 264 264 265 266 267 268 268 269 270 271 272 273 273 273 274 275 276 277 277 278 280 281 282 283 284 285 286
225 222 216 210 206 202 200 201 203 204 206 209 209 208 210 210 209 211 213 213 218 220 218 219 221 224 225 220 218 223 224 223 225 227 229 229 229 231 234 237 238 238 240 242 243 242 242 243 244 246 248 250 253 255 258 260 262 264 265 266 266 267 268 269 270 270 271 272 273 274 275 275 276 276 277 277 278 279 280 281 282 283 284 285 286 287
226 224 218 213 207 202 200 201 202 203 205 208 208 208 210 211 209 210 213 215 218 221 219 220 222 225 226 223 221 223 224 225 226 228 230 231 231 231 232 235 238 241 243 246 247 247 246 245 245 246 247 250 252 255 259 261 264 266 267 267 268 268 270 271 271 272 273 274 275 275 276 277 277 278 278 279 280 281 281 282 283 283 284 285 286 287
225 223 220 215 208 202 200 201 202 203 205 207 208 208 210 212 210 211 214 216 218 221 221 221 223 225 226 225 223 224 225 226 227 228 231 233 234 234 233 234 237 241 244 247 249 250 251 250 250 250 250 251 253 256 259 262 264 266 267 268 268 269 270 271 272 273 275 276 276 277 278 278 278 279 279 280 280 281 281 282 282 283 284 284 285 286
230 227 222 216 210 205 202 202 203 204 205 208 208 209 211 213 213 213 215 218 220 222 223 223 224 226 228 226 226 227 227 227 227 229 232 234 235 236 236 237 238 240 243 246 248 250 252 253 254 254 253 254 255 257 260 262 264 265 266 267 268 269 270 271 272 274 275 276 277 278 278 279 279 279 280 280 280 280 281 281 282 282 283 284 285 286
232 229 223 216 212 206 201 201 202 203 205 208 209 210 211 213 214 215 216 219 221 223 225 225 226 228 229 228 228 229 231 231 229 229 231 233 235 237 239 239 240 242 244 246 248 250 252 254 255 256 257 257 258 260 261 263 264 266 267 268 269 270 271 273 274 275 275 275 275 276 276 277 277 278 279 279 280 280 280 281 281 282 283 284 285 286
229 227 222 215 211 205 201 200 201 202 204 206 209 210 211 213 214 215 216 218 221 223 224 225 227 228 231 230 229 229 231 233 233 231 231 233 235 237 239 241 242 243 245 247 249 250 252 254 255 256 257 259 260 262 262 263 264 266 268 270 272 273 274 275 276 276 276 276 275 275 275 275 275 276 277 278 278 279 280 280 281 282 283 284 285 286
227 226 221 214 210 206 202 200 201 202 205 207 209 209 211 214 216 215 217 219 221 223 225 226 227 228 231 231 230 230 231 234 236 236 235 234 235 237 239 241 243 244 245 247 249 250 252 254 255 256 257 259 260 262 263 264 265 267 269 271 273 274 275 276 277 277 277 276 276 275 275 275 275 276 276 276 277 277 278 279 280 281 282 283 284 284
224 222 218 213 209 206 204 202 201 203 205 207 209 210 212 215 216 217 219 220 222 224 226 227 228 229 231 232 233 233 234 235 237 239 239 238 237 237 238 241 243 245 246 248 249 251 253 254 256 256 258 259 261 262 263 265 266 268 270 272 273 275 276 276 276 276 276 275 275 275 275 275 275 275 275 276 276 276 277 278 279 280 281 282 283 283
222 219 217 213 209 207 205 204 203 204 206 208 209 211 213 215 217 220 222 223 225 227 229 230 231 231 232 234 236 237 237 237 239 240 241 241 240 240 240 241 243 245 247 249 251 253 254 256 257 258 259 260 262 263 264 265 267 269 271 273 274 275 275 275 275 275 274 274 274 274 274 274 274 275 275 276 276 277 278 279 279 280 281 282 283 284
220 219 217 214 211 209 207 206 206 206 207 209 211 212 213 215 217 221 223 225 227 229 230 233 234 233 233 235 237 239 240 240 240 241 242 242 243 243 243 243 244 245 247 250 252 254 256 257 258 259 260 260 261 262 263 265 267 270 272 273 274 275 275 275 274 274 273 273 273 273 274 274 274 275 276 276 277 278 279 279 280 281 282 283 284 285
218 219 218 215 213 212 210 209 208 208 209 211 214 216 217 218 220 223 226 227 229 230 233 235 235 235 235 235 237 240 241 242 242 243 243 243 244 245 245 246 247 248 249 250 252 254 256 257 258 259 260 260 260 261 263 265 268 270 272 274 275 276 276 276 275 275 275 275 275 275 274 275 275 276 276 277 278 278 279 279 280 281 283 283 284 285
216 217 217 216 215 214 213 212 211 211 211 212 214 217 218 220 222 225 229 231 233 234 236 237 237 236 236 236 237 239 241 242 243 243 244 245 245 246 247 248 250 251 252 253 253 254 255 256 257 257 258 259 260 261 264 266 269 271 274 275 277 277 277 276 276 276 276 276 276 276 276 276 276 276 277 277 278 278 279 280 281 282 283 284 285 286
218 217 216 216 215 215 215 215 214 214 214 214 215 217 219 221 222 225 228 231 235 236 237 239 238 236 237 238 239 240 242 243 244 244 244 246 247 248 249 250 251 253 254 254 255 255 255 255 256 256 257 258 260 263 265 268 270 272 274 275 276 276 276 276 276 276 276 276 276 275 275 275 275 276 276 277 278 279 280 282 283 283 284 285 286 287
219 217 217 216 216 215 215 216 216 215 216 216 217 218 220 221 223 225 227 230 233 234 235 237 236 234 237 241 242 242 242 243 245 245 246 247 248 249 250 251 252 252 253 254 254 255 255 255 256 257 258 260 262 265 267 269 271 272 273 274 274 274 275 275 275 275 275 274 274 273 273 273 274 274 275 277 278 280 281 282 283 284 285 286 286 287
222 221 221 220 220 220 219 220 220 219 218 218 218 219 221 222 224 227 229 232 233 234 235 237 236 235 238 244 246 246 244 244 245 246 247 248 249 250 250 250 251 251 252 253 253 254 255 256 257 259 260 263 264 266 268 269 271 271 272 272 273 274 274 274 274 274 273 273 272 272 272 273 273 275 276 278 280 281 282 283 284 284 285 286 287 288
223 223 224 224 227 228 227 228 228 226 225 224 223 224 225 227 228 229 232 233 234 236 238 238 238 238 240 244 247 248 248 247 247 247 247 247 247 248 249 250 251 252 253 254 255 257 258 259 260 261 262 264 265 267 268 269 269 270 271 272 273 273 273 273 273 272 272 271 271 272 273 274 275 277 279 280 281 282 283 284 285 286 286 288 289 290
223 225 226 225 227 229 229 229 229 230 231 231 231 231 232 233 234 235 236 237 237 239 240 238 239 240 241 244 247 248 249 249 247 246 246 246 246 247 249 251 253 254 255 256 257 258 259 260 261 262 263 265 266 267 268 268 269 270 271 271 272 272 272 272 271 271 271 271 272 273 274 276 277 279 280 281 282 283 285 286 287 288 289 290 291 292
226 228 228 226 226 227 226 226 226 227 229 229 229 231 232 234 235 236 238 238 239 241 240 238 239 240 239 242 245 246 247 247 247 247 247 248 250 252 253 254 255 256 257 257 257 257 258 259 261 262 263 265 266 267 268 268 269 270 270 271 271 271 271 270 270 270 271 272 273 274 275 276 277 279 280 282 283 285 286 287 288 289 290 291 292 292
228 229 229 227 227 227 226 227 227 227 227 227 227 228 229 231 233 234 235 235 237 240 240 238 238 239 238 240 244 246 249 250 251 253 253 254 256 258 259 259 258 256 255 254 255 255 257 258 260 261 263 264 266 267 267 268 269 269 270 270 270 270 270 270 270 271 272 273 274 275 276 277 278 280 281 283 284 286 287 288 289 290 291 292 292 293
228 229 230 229 228 228 228 228 228 228 229 230 229 229 229 230 232 235 237 237 239 241 242 243 243 242 243 246 249 252 255 256 256 257 258 257 257 257 256 256 255 254 253 253 254 255 256 258 260 261 263 264 265 266 267 268 269 269 269 270 270 270 270 270 271 272 273 274 275 276 277 278 279 281 282 283 285 286 287 288 289 291 291 292 292 293
228 228 229 230 230 230 230 230 230 230 231 231 231 231 232 234 238 241 243 243 244 245 246 247 248 249 250 251 252 253 255 256 256 257 256 254 253 251 250 250 251 252 253 254 255 256 258 260 261 262 264 265 266 267 267 268 268 269 269 269 269 269 269 270 271 272 273 275 276 277 278 279 280 282 283 284 286 287 288 289 290 291 292 292 292 293
228 229 230 230 232 233 233 233 233 233 232 233 234 236 238 240 242 243 243 244 245 247 247 249 251 252 251 249 249 250 251 252 253 253 253 253 252 251 250 250 251 252 254 256 258 259 261 262 263 264 265 266 266 266 267 267 267 268 268 268 268 269 270 270 272 273 274 275 277 278 279 281 282 283 284 286 287 288 289 290 291 291 291 292 293 294
228 230 231 231 232 234 235 235 235 235 236 237 239 240 241 242 242 243 244 246 247 248 250 251 251 250 249 248 248 249 250 251 252 251 252 252 253 254 254 253 254 255 257 258 260 261 263 263 264 265 265 265 265 265 266 266 267 268 268 268 269 270 271 272 273 274 275 277 278 279 281 282 283 285 286 287 288 289 290 290 291 291 291 292 293 293
228 230 232 233 234 235 235 235 235 238 242 243 242 240 241 242 244 246 248 248 248 249 250 250 250 250 250 250 250 251 252 252 252 251 251 252 253 254 255 255 256 257 258 260 261 262 263 264 264 264 264 264 264 265 265 266 267 268 269 269 270 271 272 273 274 275 276 278 279 281 282 283 284 286 287 288 289 289 289 290 290 290 291 292 292 293
228 230 232 233 235 236 237 237 239 243 247 246 243 242 243 245 246 248 248 248 247 248 249 250 251 251 252 251 251 252 252 251 251 251 252 254 255 256 257 258 259 260 260 261 262 263 263 264 264 264 264 264 265 266 267 268 269 269 269 270 271 272 273 274 275 277 278 279 280 282 283 284 285 286 287 287 288 288 289 289 289 290 291 291 292 292
230 231 232 234 236 237 240 242 244 246 247 246 245 246 246 249 250 250 250 249 248 249 251 252 253 253 253 253 253 252 252 252 252 253 255 257 258 258 259 259 260 261 261 261 261 261 262 263 263 264 265 266 267 268 269 269 270 270 271 271 272 273 274 275 277 278 279 280 281 282 283 284 285 285 286 287 287 288 288 289 289 290 291 291 292 292
234 234 234 236 237 237 239 242 243 245 246 246 246 247 249 250 251 251 252 251 250 251 254 255 256 256 255 255 254 254 254 254 255 256 258 259 258 258 259 259 260 261 262 262 262 262 263 264 264 265 266 267 268 269 270 271 271 272 273 273 274 275 276 277 278 279 279 280 281 282 283 284 284 285 286 286 287 287 288 288 289 290 291 291 291 292
237 237 237 239 238 237 239 240 241 244 248 248 248 248 249 250 250 251 252 252 251 250 252 254 256 256 255 254 253 253 254 256 258 260 259 259 258 259 259 260 261 262 263 264 264 265 265 265 266 266 267 267 268 269 270 271 272 273 274 274 275 275 276 277 278 279 280 280 281 282 283 284 284 285 285 286 286 287 287 288 289 289 290 291 293 294
239 239 239 240 240 240 242 243 243 245 247 249 248 247 247 248 247 247 250 253 253 251 250 253 254 254 253 253 253 253 254 257 259 259 258 259 260 260 261 261 262 263 264 265 266 267 267 267 267 267 267 268 269 270 270 271 272 273 273 274 275 276 276 277 278 279 279 280 281 282 283 284 284 284 285 285 286 286 287 288 289 290 292 294 295 295
241 242 243 244 244 245 246 247 247 245 245 248 250 248 248 247 245 247 252 257 258 255 253 252 252 252 252 253 253 254 255 257 257 257 258 260 261 262 263 264 264 264 265 265 266 266 267 267 267 267 267 268 269 270 271 272 272 273 273 274 275 276 277 278 278 279 280 281 282 282 283 284 284 284 285 285 286 287 288 290 292 293 294 294 294 294
241 243 244 245 246 247 248 249 249 246 243 247 251 251 250 249 249 252 256 257 256 256 254 251 251 252 252 252 253 254 255 255 256 257 258 259 261 262 263 263 263 263 263 263 263 264 265 265 266 267 268 269 270 271 271 272 273 273 274 275 276 277 278 278 279 280 281 282 282 283 284 284 284 285 285 286 288 290 291 292 292 292 292 292 293 293
242 243 245 246 246 248 248 249 249 247 245 247 251 253 254 255 256 256 254 252 251 252 251 251 251 251 250 250 250 251 253 254 255 255 256 257 258 259 260 261 262 262 262 263 263 263 264 265 266 267 268 269 270 271 272 273 273 274 275 276 277 278 278 279 280 281 282 282 283 283 284 284 285 286 288 289 290 290 290 291 291 291 292 293 294 294
241 243 245 247 248 248 249 250 251 252 251 251 252 254 257 259 258 254 251 249 248 247 247 249 250 250 250 249 248 248 250 251 252 253 254 255 255 256 257 259 260 261 263 264 264 264 265 266 266 267 268 269 270 271 272 273 274 275 275 276 277 278 279 280 280 281 282 282 283 283 284 286 287 288 289 289 289 289 290 290 291 292 293 294 294 295
243 245 247 249 250 252 253 254 254 253 252 252 251 251 253 255 256 254 252 250 248 245 244 245 246 248 250 249 248 247 247 248 249 251 252 254 255 256 257 258 260 261 263 264 265 266 266 266 267 268 269 270 270 271 272 273 273 274 275 276 277 277 278 279 279 280 281 282 283 284 285 286 287 287 288 288 289 290 291 291 292 293 293 294 294 295
244 246 248 249 250 252 253 253 252 251 250 250 250 251 252 253 255 255 255 253 252 250 248 246 246 248 250 251 251 250 250 250 250 251 252 254 255 256 258 259 260 262 263 265 266 267 267 268 268 269 269 270 270 271 271 272 273 273 274 274 275 275 276 277 279 280 281 282 284 285 285 286 287 288 289 289 290 291 291 292 292 293 293 294 294 295
241 243 246 247 248 250 250 250 250 250 249 249 250 251 253 254 255 257 258 257 256 255 253 252 251 250 251 252 253 253 253 253 253 254 255 256 257 258 260 261 261 262 263 264 265 266 267 268 268 268 269 269 269 270 270 271 271 272 273 273 274 276 277 279 280 281 282 283 284 285 286 287 288 288 289 289 290 290 291 292 292 293 294 294 294 295
240 242 245 246 248 248 248 248 249 250 249 249 249 250 252 253 255 256 257 259 259 258 256 256 255 254 254 254 254 254 254 255 255 255 256 257 257 258 259 260 261 261 262 263 264 265 266 267 267 268 268 269 269 270 270 271 271 272 273 274 275 277 278 280 281 282 283 285 286 286 287 287 288 288 288 289 290 290 291 292 293 293 294 294 295 296
240 241 243 245 246 246 246 246 247 247 248 249 249 250 252 253 255 257 258 259 260 260 259 258 257 257 256 255 255 255 255 255 255 255 255 255 255 256 257 258 259 259 260 262 263 264 266 266 267 268 269 270 270 271 271 272 272 273 274 275 277 278 280 281 283 284 285 286 286 286 287 287 288 288 289 290 291 291 292 293 293 294 294 295 296 296
240 240 241 243 245 245 245 246 247 247 248 249 250 251 252 253 255 257 258 259 260 261 261 261 260 258 257 256 256 256 256 256 256 256 256 257 257 258 259 259 259 260 260 262 263 264 265 266 267 268 270 270 271 271 272 272 273 274 276 278 280 281 282 283 284 285 285 285 286 286 287 287 288 289 290 291 292 292 293 294 294 295 295 296 297 297
240 241 242 244 245 245 246 246 247 248 248 248 248 249 251 252 254 255 257 259 260 261 261 261 261 259 258 256 256 256 256 257 257 258 259 260 260 261 261 262 262 263 263 263 264 264 265 265 266 267 268 269 270 271 272 273 275 277 279 281 282 283 283 284 284 285 285 286 286 287 288 289 290 291 292 292 293 293 294 294 295 295 296 296 297 298
Height
5763 5765 5768 5775 5782 5786 5790 5794 5799 5803 5806 5808 5812 5816 5819 5823 5827 5830 5833 5836 5839 5841 5845 5849 5852 5854 5855 5857 5859 5860 5862 5865 5868 5871 5872 5873 5874 5876 5877 5879 5880 5882 5883 5884 5885 5886 5887 5888 5889 5890 5891 5891 5892 5892 5892 5892 5893 5893 5893 5893 5894 5894 5894 5894 5894 5895 5895 5895 5895 5896 5896 5896 5896 5896 5895 5895 5894 5894 5893 5893 5893 5893 5892 5891 5890 5890
5758 5762 5768 5776 5781 5784 5787 5791 5795 5799 5802 5804 5807 5812 5816 5821 5825 5829 5833 5836 5838 5840 5844 5847 5849 5850 5851 5854 5856 5857 5860 5864 5866 5868 5869 5871 5872 5873 5875 5877 5878 5880 5881 5882 5884 5885 5885 5886 5887 5888 5889 5889 5890 5890 5891 5891 5891 5892 5891 5891 5892 5892 5892 5893 5893 5893 5893 5893 5894 5894 5894 5894 5894 5893 5893 5893 5893 5892 5892 5892 5891 5891 5890 5889 5888 5887
5756 5762 5769 5774 5778 5780 5783 5787 5791 5795 5798 5800 5803 5808 5812 5816 5821 5826 5829 5832 5835 5838 5841 5843 5845 5847 5849 5851 5853 5855 5859 5862 5863 5865 5866 5868 5870 5871 5873 5875 5876 5878 5879 5880 5882 5883 5884 5884 5885 5886 5887 5888 5888 5888 5889 5889 5889 5890 5890 5890 5890 5891 5891 5891 5891 5891 5891 5891 5891 5891 5891 5891 5891 5891 5891 5890 5890 5890 5890 5889 5889 5888 5887 5887 5886 5885
5757 5763 5768 5771 5773 5775 5779 5783 5787 5790 5794 5796 5800 5804 5808 5812 5817 5822 5826 5829 5832 5835 5837 5839 5842 5844 5845 5846 5850 5854 5857 5859 5860 5862 5864 5865 5867 5869 5870 5872 5874 5876 5877 5878 5880 5881 5882 5883 5883 5884 5884 5885 5886 5887 5887 5887 5887 5888 5888 5888 5888 5889 5889 5889 5889 5889 5889 5889 5889 5889 5889 5889 5888 5888 5888 5888 5887 5887 5887 5886 5886 5885 5885 5884 5883 5882
5755 5761 5764 5765 5767 5770 5774 5778 5782 5786 5790 5793 5797 5802 5805 5809 5814 5820 5824 5826 5829 5831 5834 5836 5837 5839 5841 5843 5848 5853 5854 5856 5857 5859 5861 5863 5865 5866 5868 5870 5872 5873 5874 5876 5877 5878 5879 5880 5881 5881 5882 5883 5884 5884 5884 5885 5885 5885 5886 5886 5886 5887 5887 5887 5887 5887 5887 5887 5887 5887 5886 5886 5886 5886 5885 5885 5884 5884 5883 5883 5882 5882 5882 5881 5880 5879
5750 5755 5757 5758 5761 5765 5769 5774 5778 5783 5787 5791 5794 5799 5803 5808 5813 5818 5821 5823 5825 5827 5829 5832 5832 5835 5839 5841 5846 5850 5850 5852 5855 5857 5859 5861 5862 5864 5865 5867 5869 5870 5872 5873 5875 5876 5877 5878 5878 5879 5880 5880 5881 5881 5881 5882 5882 5883 5883 5883 5884 5884 5884 5884 5884 5884 5884 5884 5884 5884 5884 5884 5883 5883 5882 5882 5881 5881 5881 5880 5879 5879 5878 5877 5876 5875
5745 5749 5751 5753 5756 5761 5766 5771 5776 5780 5784 5787 5791 5796 5801 5806 5811 5815 5818 5819 5821 5823 5826 5828 5828 5833 5838 5839 5843 5845 5846 5849 5852 5854 5856 5858 5859 5862 5863 5865 5866 5867 5869 5870 5872 5873 5874 5875 5876 5876 5877 5877 5878 5878 5878 5879 5879 5880 5880 5881 5881 5882 5882 5882 5881 5881 5881 5881 5881 5881 5881 5881 5881 5880 5879 5879 5879 5878 5878 5877 5876 5875 5875 5874 5873 5871
5741 5743 5745 5748 5752 5756 5762 5768 5772 5777 5782 5784 5788 5794 5799 5804 5808 5812 5815 5817 5818 5821 5822 5824 5826 5829 5833 5836 5838 5840 5843 5846 5849 5851 5854 5855 5857 5860 5861 5862 5863 5864 5866 5867 5869 5870 5871 5872 5873 5873 5874 5874 5875 5875 5875 5876 5876 5877 5877 5877 5878 5878 5879 5879 5878 5878 5878 5878 5878 5879 5879 5878 5878 5877 5876 5876 5875 5875 5874 5873 5873 5872 5871 5870 5869 5868
5738 5739 5742 5745 5748 5752 5759 5766 5770 5774 5778 5781 5786 5792 5796 5801 5805 5809 5813 5814 5816 5817 5818 5820 5823 5824 5828 5833 5835 5837 5840 5843 5846 5849 5851 5853 5855 5857 5858 5860 5861 5862 5863 5864 5866 5867 5868 5869 5869 5870 5871 5871 5871 5872 5872 5873 5873 5874 5874 5874 5874 5875 5875 5875 5875 5875 5875 5875 5875 5876 5875 5875 5874 5873 5873 5872 5872 5871 5870 5870 5869 5868 5867 5866 5865 5864
5733 5735 5738 5741 5745 5750 5757 5762 5766 5770 5774 5778 5783 5789 5793 5797 5801 5805 5808 5810 5811 5811 5813 5817 5819 5820 5824 5830 5832 5833 5837 5841 5845 5847 5848 5850 5852 5854 5856 5857 5858 5859 5860 5861 5863 5864 5865 5866 5866 5867 5867 5868 5868 5869 5869 5870 5870 5870 5871 5871 5871 5871 5871 5871 5871 5871 5871 5872 5872 5872 5872 5871 5871 5870 5869 5869 5868 5867 5866 5866 5865 5864 5863 5862 5861 5860
5729 5731 5734 5738 5742 5747 5752 5757 5761 5767 5771 5775 5780 5785 5789 5794 5798 5801 5804 5806 5805 5805 5810 5814 5816 5816 5819 5825 5829 5830 5835 5840 5842 5843 5845 5848 5850 5851 5853 5854 5855 5856 5857 5858 5860 5861 5862 5863 5864 5864 5864 5865 5865 5866 5866 5866 5867 5867 5867 5867 5867 5866 5866 5867 5867 5868 5868 5868 5868 5868 5867 5867 5867 5866 5865 5865 5864 5863 5862 5861 5860 5860 5859 5858 5857 5855
5725 5728 5731 5735 5739 5743 5748 5752 5758 5763 5767 5772 5777 5782 5786 5789 5793 5796 5799 5801 5800 5801 5807 5811 5812 5812 5814 5821 5826 5828 5832 5836 5838 5840 5842 5845 5847 5848 5849 5850 5851 5852 5853 5855 5856 5858 5859 5860 5861 5861 5861 5862 5862 5862 5862 5862 5863 5863 5863 5863 5862 5862 5862 5863 5863 5863 5863 5863 5863 5863 5863 5863 5862 5862 5861 5860 5860 5859 5858 5857 5856 5855 5854 5853 5852 5851
5722 5725 5728 5732 5735 5739 5743 5748 5753 5758 5763 5767 5772 5777 5781 5784 5788 5791 5793 5795 5795 5798 5804 5807 5808 5808 5810 5817 5823 5825 5829 5833 5835 5838 5840 5841 5843 5844 5845 5846 5847 5848 5850 5852 5853 5854 5855 5856 5857 5858 5858 5859 5859 5859 5859 5859 5859 5859 5859 5859 5859 5859 5858 5859 5859 5859 5859 5859 5859 5859 5859 5859 5858 5857 5857 5856 5855 5854 5853 5853 5852 5851 5849 5848 5847 5846
5718 5721 5725 5728 5732 5735 5739 5744 5749 5754 5758 5763 5768 5773 5776 5778 5782 5785 5787 5790 5792 5795 5800 5803 5804 5804 5806 5813 5819 5823 5827 5830 5833 5835 5837 5838 5840 5840 5842 5843 5844 5846 5847 5849 5850 5850 5851 5852 5853 5854 5855 5855 5855 5856 5856 5856 5855 5855 5856 5855 5855 5855 5855 5855 5855 5855 5855 5855 5855 5855 5854 5854 5853 5853 5852 5852 5851 5850 5849 5848 5847 5846 5845 5844 5842 5841
5715 5718 5723 5726 5729 5732 5737 5742 5748 5753 5758 5761 5766 5770 5772 5775 5779 5783 5786 5788 5791 5794 5797 5799 5800 5800 5803 5810 5817 5820 5823 5827 5830 5832 5834 5835 5836 5837 5838 5840 5842 5843 5844 5845 5846 5846 5847 5848 5849 5850 5850 5851 5852 5852 5852 5852 5852 5852 5852 5852 5852 5852 5852 5852 5852 5852 5852 5852 5851 5851 5850 5850 5849 5848 5848 5847 5846 5845 5844 5843 5842 5841 5840 5839 5837 5836
5714 5718 5722 5725 5727 5730 5734 5739 5744 5749 5754 5758 5762 5765 5768 5772 5777 5781 5784 5787 5790 5791 5793 5794 5796 5798 5802 5808 5814 5818 5820 5823 5826 5828 5830 5831 5832 5834 5835 5836 5838 5839 5840 5841 5842 5842 5843 5844 5844 5845 5846 5847 5847 5848 5848 5848 5848 5848 5848 5848 5848 5848 5848 5848 5848 5848 5848 5848 5848 5847 5846 5846 5845 5844 5844 5843 5842 5841 5840 5839 5837 5836 5835 5834 5832 5831
5711 5715 5719 5722 5725 5727 5730 5735 5740 5744 5748 5751 5755 5759 5764 5768 5772 5776 5779 5782 5783 5784 5786 5789 5792 5795 5799 5804 5810 5814 5816 5818 5821 5824 5826 5827 5829 5830 5832 5833 5835 5835 5836 5837 5837 5838 5839 5840 5841 5841 5842 5842 5843 5843 5843 5844 5844 5844 5844 5844 5844 5845 5845 5845 5845 5845 5844 5844 5843 5843 5842 5841 5841 5840 5839 5838 5837 5836 5835 5834 5833 5831 5830 5829 5827 5826
5709 5712 5716 5719 5722 5725 5728 5731 5736 5740 5744 5747 5751 5756 5761 5764 5767 5771 5774 5776 5777 5778 5781 5784 5788 5791 5794 5798 5804 5809 5812 5815 5817 5819 5822 5824 5826 5827 5828 5829 5830 5831 5832 5832 5833 5834 5835 5836 5836 5837 5838 5838 5838 5839 5839 5839 5840 5840 5840 5841 5841 5841 5841 5841 5841 5841 5840 5839 5839 5838 5837 5837 5836 5835 5834 5833 5832 5831 5830 5829 5828 5826 5825 5824 5822 5821
5707 5710 5713 5716 5718 5722 5725 5728 5732 5736 5740 5744 5749 5754 5757 5759 5762 5767 5769 5771 5773 5775 5777 5781 5784 5787 5790 5794 5800 5805 5809 5812 5813 5815 5817 5820 5822 5823 5824 5825 5825 5826 5827 5828 5829 5830 5831 5832 5832 5833 5833 5834 5834 5834 5835 5835 5835 5836 5836 5836 5837 5837 5837 5837 5837 5836 5835 5835 5834 5833 5833 5832 5831 5830 5829 5828 5827 5826 5825 5824 5823 5821 5820 5819 5817 5815
5703 5706 5710 5713 5716 5719 5722 5725 5728 5732 5736 5740 5745 5749 5752 5756 5760 5763 5765 5769 5772 5773 5776 5778 5780 5784 5789 5794 5798 5802 5805 5808 5810 5812 5813 5815 5817 5818 5820 5820 5821 5822 5822 5823 5824 5825 5826 5827 5828 5828 5829 5829 5830 5830 5830 5830 5831 5831 5832 5832 5832 5832 5832 5832 5832 5831 5830 5830 5829 5828 5828 5827 5826 5825 5824 5823 5822 5821 5820 5819 5818 5816 5815 5813 5812 5810
5700 5704 5707 5710 5713 5715 5718 5722 5727 5731 5734 5738 5741 5744 5748 5752 5755 5759 5761 5764 5767 5770 5772 5773 5775 5781 5787 5792 5795 5798 5801 5804 5806 5808 5809 5810 5812 5813 5814 5815 5816 5817 5818 5819 5820 5821 5822 5823 5823 5824 5824 5825 5825 5825 5826 5826 5827 5827 5828 5828 5828 5828 5828 5827 5827 5826 5825 5825 5824 5823 5822 5822 5821 5820 5819 5818 5817 5816 5814 5813 5812 5811 5809 5808 5806 5805
5696 5701 5704 5707 5710 5713 5717 5721 5725 5728 5731 5735 5739 5742 5747 5750 5753 5756 5757 5760 5763 5766 5767 5769 5772 5778 5784 5788 5792 5794 5797 5799 5801 5803 5804 5806 5807 5808 5808 5809 5811 5812 5814 5815 5816 5817 5817 5818 5818 5819 5819 5820 5820 5821 5822 5822 5823 5823 5823 5823 5823 5823 5823 5822 5821 5821 5820 5820 5819 5818 5817 5816 5816 5815 5814 5813 5811 5810 5809 5808 5807 5805 5804 5803 5801 5799
5694 5697 5700 5704 5708 5712 5715 5718 5722 5725 5728 5732 5734 5738 5743 5745 5749 5752 5754 5757 5760 5762 5764 5766 5770 5774 5780 5784 5788 5790 5792 5795 5797 5799 5800 5801 5802 5803 5803 5805 5806 5808 5809 5811 5811 5812 5812 5813 5813 5814 5814 5815 5816 5817 5817 5818 5818 5818 5819 5818 5818 5818 5817 5817 5816 5816 5815 5814 5814 5813 5812 5811 5810 5809 5808 5807 5806 5805 5804 5802 5801 5800 5798 5797 5795 5793
5692 5694 5697 5700 5704 5708 5711 5714 5718 5721 5724 5727 5730 5734 5737 5740 5745 5748 5750 5753 5755 5757 5761 5763 5765 5771 5776 5779 5782 5785 5788 5790 5792 5794 5795 5796 5798 5798 5799 5801 5802 5803 5804 5805 5806 5806 5807 5807 5808 5809 5810 5811 5812 5813 5813 5813 5813 5813 5813 5813 5813 5812 5812 5811 5811 5810 5810 5809 5808 5807 5806 5805 5805 5804 5803 5802 5800 5800 5798 5797 5796 5794 5792 5791 5789 5787
5689 5691 5693 5697 5699 5702 5705 5708 5712 5716 5719 5724 5728 5731 5733 5736 5740 5741 5744 5748 5749 5753 5757 5757 5759 5767 5772 5774 5777 5780 5783 5786 5787 5789 5790 5792 5793 5794 5794 5796 5797 5798 5799 5799 5800 5800 5801 5802 5803 5804 5806 5807 5807 5808 5808 5808 5808 5808 5808 5807 5807 5807 5806 5806 5806 5805 5804 5803 5802 5802 5801 5800 5799 5798 5797 5796 5795 5794 5793 5792 5790 5788 5786 5784 5782 5780
5687 5689 5691 5694 5695 5697 5700 5704 5709 5714 5718 5720 5723 5725 5728 5732 5735 5738 5742 5743 5745 5749 5751 5752 5757 5766 5770 5771 5772 5775 5779 5781 5783 5784 5786 5788 5788 5789 5790 5791 5791 5792 5793 5794 5794 5795 5796 5798 5799 5800 5801 5802 5802 5803 5803 5803 5802 5802 5802 5802 5801 5801 5801 5800 5800 5799 5798 5797 5796 5796 5795 5794 5793 5793 5792 5791 5790 5788 5787 5785 5783 5781 5779 5777 5775 5773
5684 5687 5689 5692 5694 5697 5703 5708 5712 5716 5717 5718 5721 5724 5727 5730 5733 5736 5736 5737 5742 5746 5747 5750 5757 5763 5767 5767 5768 5771 5774 5776 5779 5780 5781 5782 5783 5783 5784 5785 5786 5787 5788 5789 5790 5791 5792 5793 5795 5796 5796 5797 5797 5797 5797 5797 5796 5796 5796 5796 5796 5795 5795 5794 5793 5793 5792 5791 5790 5790 5789 5788 5788 5787 5786 5785 5783 5782 5780 5778 5776 5774 5772 5770 5768 5766
5680 5682 5686 5690 5693 5697 5702 5706 5709 5711 5713 5717 5721 5724 5726 5728 5730 5731 5732 5736 5742 5742 5742 5749 5756 5758 5762 5763 5764 5767 5769 5770 5773 5775 5775 5776 5777 5778 5780 5781 5783 5784 5785 5785 5786 5787 5788 5789 5789 5790 5790 5791 5791 5791 5791 5790 5790 5791 5790 5790 5790 5789 5788 5788 5787 5786 5786 5785 5784 5784 5783 5783 5782 5781 5779 5778 5776 5775 5773 5771 5769 5767 5765 5763 5761 5758
5677 5679 5684 5688 5691 5694 5698 5700 5703 5706 5708 5712 5715 5718 5721 5723 5724 5726 5730 5734 5737 5736 5739 5749 5752 5752 5756 5758 5759 5762 5763 5764 5767 5769 5771 5773 5774 5775 5777 5778 5779 5780 5780 5781 5781 5782 5783 5783 5784 5784 5785 5785 5785 5785 5785 5785 5785 5785 5784 5784 5784 5783 5782 5782 5781 5780 5780 5779 5778 5778 5777 5776 5775 5774 5772 5771 5769 5768 5766 5764 5762 5760 5758 5756 5753 5751
5674 5677 5680 5684 5688 5690 5693 5695 5698 5701 5703 5706 5709 5711 5714 5716 5718 5721 5724 5728 5730 5731 5736 5743 5743 5744 5750 5754 5756 5758 5758 5760 5763 5764 5767 5770 5771 5772 5773 5773 5774 5774 5774 5774 5775 5776 5777 5778 5778 5779 5779 5779 5779 5779 5779 5779 5779 5779 5778 5778 5777 5777 5776 5776 5775 5775 5774 5773 5772 5771 5770 5769 5768 5767 5766 5764 5763 5761 5759 5757 5755 5753 5751 5748 5746 5743
5671 5673 5676 5680 5683 5685 5688 5691 5694 5696 5698 5701 5703 5706 5708 5711 5713 5716 5720 5724 5725 5727 5733 5737 5736 5741 5750 5753 5755 5756 5755 5756 5758 5759 5763 5765 5765 5766 5766 5766 5766 5766 5767 5768 5769 5770 5772 5772 5773 5773 5773 5773 5773 5773 5773 5773 5773 5773 5772 5772 5771 5771 5770 5770 5769 5768 5767 5767 5766 5764 5763 5762 5761 5760 5759 5757 5756 5754 5752 5749 5747 5745 5743 5740 5737 5735
5667 5669 5672 5676 5678 5680 5684 5686 5688 5691 5694 5694 5696 5700 5704 5708 5711 5714 5718 5721 5722 5725 5730 5731 5732 5742 5751 5750 5750 5752 5750 5749 5752 5754 5756 5757 5758 5758 5758 5759 5759 5759 5760 5762 5763 5765 5766 5767 5767 5767 5767 5767 5767 5767 5767 5767 5766 5766 5766 5766 5765 5765 5764 5763 5763 5762 5761 5760 5759 5758 5756 5755 5754 5753 5751 5750 5748 5746 5744 5742 5739 5737 5734 5732 5729 5726
5662 5665 5669 5671 5673 5677 5680 5681 5684 5687 5686 5687 5693 5699 5703 5706 5708 5710 5712 5715 5718 5721 5724 5726 5731 5741 5744 5742 5743 5745 5743 5743 5746 5748 5748 5748 5749 5750 5751 5752 5752 5753 5754 5756 5757 5759 5760 5760 5760 5760 5761 5761 5760 5760 5760 5760 5760 5760 5760 5759 5759 5758 5757 5757 5756 5755 5754 5753 5752 5750 5749 5748 5746 5745 5744 5742 5740 5738 5735 5733 5731 5728 5725 5723 5720 5718
5659 5662 5664 5667 5670 5672 5674 5677 5679 5678 5679 5686 5695 5699 5700 5701 5703 5704 5707 5712 5714 5716 5719 5723 5729 5732 5732 5733 5737 5738 5737 5738 5740 5740 5740 5741 5742 5743 5744 5745 5746 5747 5749 5751 5752 5752 5753 5753 5753 5754 5754 5754 5753 5753 5753 5753 5753 5753 5753 5752 5752 5751 5750 5749 5749 5747 5746 5745 5744 5743 5742 5740 5738 5737 5735 5734 5732 5730 5727 5725 5722 5719 5717 5714 5712 5709
5655 5658 5659 5663 5665 5666 5669 5671 5671 5672 5679 5687 5692 5694 5695 5696 5698 5701 5704 5708 5709 5710 5713 5716 5721 5724 5725 5728 5730 5731 5732 5732 5732 5732 5733 5734 5735 5736 5737 5738 5739 5742 5744 5744 5745 5746 5746 5746 5746 5746 5747 5746 5746 5746 5746 5747 5747 5747 5746 5745 5744 5744 5743 5742 5741 5740 5739 5738 5737 5735 5734 5732 5731 5729 5727 5725 5723 5721 5719 5716 5714 5711 5708 5706 5704 5701
5651 5653 5655 5658 5659 5661 5663 5663 5664 5671 5678 5682 5685 5689 5691 5692 5695 5696 5697 5700 5703 5703 5706 5709 5715 5719 5720 5721 5724 5724 5724 5723 5722 5724 5727 5729 5730 5730 5730 5731 5733 5735 5737 5738 5738 5739 5739 5739 5739 5739 5739 5739 5739 5740 5740 5740 5740 5740 5739 5738 5737 5736 5735 5734 5734 5733 5732 5730 5729 5727 5726 5724 5722 5721 5719 5717 5715 5713 5710 5708 5705 5703 5700 5698 5695 5693
5649 5650 5653 5654 5655 5658 5659 5659 5663 5669 5672 5675 5681 5685 5687 5689 5691 5690 5690 5694 5698 5699 5701 5705 5710 5713 5713 5715 5717 5716 5715 5714 5714 5719 5724 5725 5724 5724 5724 5725 5726 5727 5729 5730 5731 5731 5732 5732 5732 5732 5733 5733 5733 5733 5733 5732 5732 5732 5731 5730 5729 5729 5728 5727 5726 5725 5724 5722 5721 5719 5718 5716 5714 5712 5710 5708 5706 5704 5702 5699 5697 5694 5692 5689 5687 5685
5644 5646 5649 5650 5652 5654 5655 5657 5660 5662 5666 5673 5678 5681 5683 5685 5686 5684 5682 5687 5694 5697 5698 5700 5704 5707 5707 5708 5709 5708 5707 5705 5707 5717 5722 5719 5716 5717 5717 5718 5719 5720 5721 5722 5723 5724 5725 5725 5726 5725 5725 5726 5725 5725 5725 5725 5725 5724 5723 5723 5722 5721 5720 5719 5718 5717 5715 5714 5713 5711 5709 5708 5706 5704 5702 5700 5698 5695 5693 5691 5688 5686 5684 5681 5679 5677
5639 5642 5644 5644 5646 5649 5650 5652 5654 5657 5664 5671 5674 5678 5679 5678 5680 5679 5675 5680 5690 5693 5693 5695 5698 5699 5699 5699 5700 5700 5699 5698 5704 5713 5715 5709 5707 5709 5710 5710 5712 5712 5713 5714 5715 5716 5717 5717 5718 5718 5718 5718 5718 5718 5718 5717 5717 5716 5715 5715 5714 5713 5712 5711 5710 5709 5707 5706 5704 5703 5701 5699 5697 5696 5694 5691 5689 5687 5684 5682 5680 5678 5676 5674 5671 5669
5633 5635 5637 5638 5641 5645 5646 5647 5649 5654 5662 5666 5668 5673 5672 5671 5673 5671 5668 5677 5684 5684 5689 5692 5690 5689 5691 5691 5692 5693 5693 5695 5700 5704 5703 5699 5699 5701 5702 5703 5704 5704 5705 5706 5707 5707 5708 5709 5709 5710 5710 5710 5710 5710 5710 5709 5709 5709 5707 5706 5705 5704 5704 5703 5701 5700 5699 5697 5696 5695 5693 5691 5689 5687 5685 5683 5681 5679 5676 5674 5672 5670 5667 5665 5663 5661
5628 5630 5632 5635 5639 5640 5642 5643 5646 5652 5659 5660 5662 5666 5665 5663 5663 5662 5667 5675 5675 5675 5683 5685 5679 5680 5684 5684 5685 5687 5689 5690 5692 5693 5693 5692 5692 5693 5694 5696 5696 5697 5698 5698 5698 5699 5699 5700 5700 5701 5701 5701 5701 5701 5701 5701 5701 5700 5699 5698 5697 5696 5695 5694 5693 5692 5691 5689 5688 5686 5685 5683 5681 5678 5677 5675 5673 5670 5668 5666 5663 5661 5659 5657 5654 5652
5624 5626 5627 5630 5633 5635 5637 5639 5641 5647 5655 5657 5657 5657 5656 5655 5657 5660 5667 5670 5667 5668 5674 5673 5671 5674 5676 5676 5678 5680 5681 5682 5684 5685 5686 5685 5685 5686 5686 5687 5687 5688 5689 5690 5691 5691 5691 5691 5692 5692 5692 5693 5693 5693 5693 5693 5692 5691 5690 5690 5689 5688 5687 5686 5684 5683 5682 5681 5679 5678 5676 5674 5672 5670 5668 5666 5664 5662 5659 5657 5655 5652 5650 5648 5646 5643
5620 5621 5622 5625 5629 5630 5631 5632 5635 5644 5653 5653 5652 5651 5649 5649 5654 5658 5660 5660 5660 5662 5664 5664 5665 5666 5666 5669 5671 5672 5673 5674 5675 5677 5678 5677 5678 5679 5679 5679 5679 5679 5681 5683 5684 5684 5684 5684 5685 5685 5685 5686 5685 5685 5685 5684 5684 5683 5682 5681 5680 5679 5678 5677 5676 5675 5673 5672 5670 5669 5667 5665 5663 5661 5659 5657 5655 5653 5651 5648 5646 5644 5642 5639 5636 5633
5613 5615 5617 5621 5624 5623 5624 5627 5635 5642 5645 5646 5646 5645 5643 5642 5645 5648 5649 5651 5653 5655 5656 5657 5658 5657 5658 5661 5663 5665 5666 5667 5667 5669 5669 5669 5670 5671 5672 5673 5673 5673 5674 5675 5676 5677 5678 5678 5678 5678 5678 5678 5678 5678 5677 5676 5675 5674 5673 5673 5672 5671 5670 5669 5668 5666 5665 5664 5662 5660 5659 5657 5655 5653 5651 5649 5647 5645 5642 5640 5637 5635 5632 5630 5627 5624
5609 5612 5614 5617 5618 5617 5620 5626 5633 5636 5636 5636 5638 5637 5635 5634 5635 5637 5639 5641 5643 5646 5649 5651 5650 5650 5651 5653 5655 5658 5660 5659 5660 5662 5662 5662 5663 5664 5665 5667 5667 5667 5668 5668 5668 5670 5670 5671 5671 5671 5671 5670 5670 5670 5669 5668 5667 5666 5666 5665 5664 5663 5662 5661 5660 5659 5657 5656 5655 5653 5651 5649 5647 5645 5643 5641 5639 5636 5634 5631 5628 5625 5623 5620 5617 5614
5605 5608 5609 5611 5612 5612 5616 5622 5625 5627 5628 5630 5629 5628 5627 5628 5628 5628 5630 5632 5635 5638 5642 5644 5645 5646 5646 5646 5649 5652 5653 5654 5655 5655 5655 5657 5657 5658 5659 5661 5661 5662 5662 5661 5661 5662 5662 5663 5663 5663 5663 5663 5662 5661 5661 5660 5659 5659 5658 5657 5656 5655 5655 5654 5652 5651 5650 5648 5647 5645 5643 5641 5639 5637 5635 5632 5630 5628 5625 5622 5619 5616 5613 5610 5606 5603
5599 5601 5602 5603 5605 5606 5610 5615 5618 5619 5621 5622 5621 5620 5620 5621 5621 5622 5622 5624 5627 5630 5633 5636 5639 5640 5641 5641 5642 5644 5646 5648 5648 5649 5650 5651 5652 5652 5654 5654 5654 5655 5655 5654 5654 5654 5654 5655 5655 5654 5655 5654 5654 5653 5653 5652 5651 5651 5650 5650 5649 5648 5647 5646 5645 5643 5642 5640 5639 5637 5635 5633 5631 5629 5626 5624 5621 5619 5616 5613 5610 5606 5603 5599 5596 5592
5592 5594 5594 5596 5598 5600 5605 5609 5610 5611 5612 5613 5613 5613 5613 5613 5614 5614 5615 5616 5619 5621 5625 5628 5631 5632 5634 5635 5635 5636 5638 5639 5641 5642 5644 5644 5645 5646 5646 5646 5647 5648 5648 5648 5648 5647 5647 5647 5646 5646 5646 5646 5646 5645 5645 5644 5644 5644 5643 5643 5642 5641 5640 5638 5637 5635 5634 5632 5631 5629 5627 5625 5623 5620 5618 5615 5612 5610 5607 5603 5600 5596 5593 5589 5585 5582
5584 5585 5588 5591 5592 5593 5598 5601 5602 5603 5603 5604 5606 5606 5606 5606 5607 5607 5608 5610 5611 5614 5617 5620 5623 5625 5626 5627 5628 5630 5631 5632 5633 5635 5635 5636 5637 5638 5638 5639 5640 5640 5641 5641 5640 5640 5640 5639 5639 5639 5638 5638 5638 5637 5637 5637 5637 5636 5636 5635 5634 5633 5632 5630 5629 5627 5626 5624 5622 5620 5619 5616 5614 5612 5609 5606 5603 5600 5597 5593 5590 5586 5582 5579 5575 5571
5576 5579 5583 5584 5583 5586 5591 5594 5595 5595 5596 5598 5600 5600 5600 5600 5601 5601 5602 5603 5605 5607 5609 5612 5614 5617 5619 5620 5622 5623 5624 5625 5626 5627 5628 5629 5629 5630 5631 5632 5633 5633 5634 5634 5634 5634 5633 5632 5632 5632 5631 5631 5630 5630 5629 5629 5629 5628 5628 5627 5626 5625 5623 5622 5621 5619 5617 5616 5614 5612 5610 5608 5605 5602 5599 5596 5593 5589 5586 5583 5580 5576 5572 5568 5565 5560
5571 5573 5575 5575 5577 5581 5585 5586 5586 5587 5588 5591 5592 5593 5593 5593 5594 5595 5596 5597 5598 5600 5602 5604 5606 5608 5610 5612 5614 5615 5616 5617 5619 5620 5621 5621 5622 5622 5623 5623 5624 5625 5626 5626 5627 5627 5626 5626 5626 5625 5625 5624 5623 5622 5622 5621 5621 5620 5619 5618 5618 5616 5615 5614 5612 5610 5609 5607 5605 5603 5601 5598 5596 5593 5590 5586 5583 5580 5576 5572 5569 5566 5563 5559 5555 5550